map of KUO home
Great Circle Mapper logo
KUO - Airport
Location
City:  Kuopio, Pohjois-Savo (Norra Savolax, Northern Savonia), Finland
Name:Kuopio Airport
Old (Alt.):Kuopio AB
ICAO:EFKU
IATA:KUO

Details
Type:Airport (Aerodrome, Airfield)
Use:Public/Civil, Military
Latitude:6300'26"N (63.007150)
Longitude:2747'52"E (27.797756)
Datum:WGS 1984
Elevation:323 ft (98 m)
Variation:10.81E (WMM2015 magnetic declination)
0.17 annual change
Runways:2
Longest:9186 × 197 ft (2800 × 60 m), paved

Time
Time Zone:UTC+2 (DST+3)
Local Time:

Weather
METAR:EFKU 261650Z AUTO 13003KT 9999 FEW014 OVC045 13/12 Q1025
TAF:EFKU 261435Z 2615/2715 17005KT 9999 SCT015 BKN040
TEMPO 2615/2624 BKN014 PROB30 2700/2706 2000 BR BKN003

Related Locations
Nearby:
Farthest:NZWD: 11088 mi / 17844 km
McMurdo Station [Williams Field], Ross Island, AQ

Find:

   beyond  
but within

Other Information
Maps:
NOTAMs:
Links:
Sources:

  
flag of Finland   

Sectional Chart

Flight Planning
at skyvector.com

Satellite Image

Google Maps Satellite view

 

Copyright © 2004-2016 Karl L. Swartz. All rights reserved.
The Great Circle Mapper name and logo are trademarks of the Great Circle Mapper.
All other trademarks mentioned herein belong to their respective owners.
Please see credits for attibutions and further copyright information.

  Follow gcmap on Facebook Follow gcmap on Twitter Follow gcmap on Google+ GCmap on LinkedIn

hCard Microformat

Geo Microformat